Stations météo

Publicité
Edinburgh/Gogarbank, Grande-Bretagne (3166): Température de l'air & dewpoint: 18.01.2021 06:00:00 - 24.01.2021 06:00:00 (GMT)Edinburgh/Gogarbank, Grande-Bretagne (3166): Température de l'air -20cm & Température de l'air -100cm: 18.01.2021 06:00:00 - 24.01.2021 06:00:00 (GMT)Edinburgh/Gogarbank, Grande-Bretagne (3166): Vitesse du vent & gusts: 18.01.2021 06:00:00 - 24.01.2021 06:00:00 (GMT)Edinburgh/Gogarbank, Grande-Bretagne (3166): Direction du vent: 18.01.2021 06:00:00 - 24.01.2021 06:00:00 (GMT)Edinburgh/Gogarbank, Grande-Bretagne (3166): reduced air pressure: 18.01.2021 06:00:00 - 24.01.2021 06:00:00 (GMT)Edinburgh/Gogarbank, Grande-Bretagne (3166): visibility: 18.01.2021 06:00:00 - 24.01.2021 06:00:00 (GMT)Edinburgh/Gogarbank, Grande-Bretagne (3166): Ensoleillement: 18.01.2021 06:00:00 - 24.01.2021 06:00:00 (GMT)Edinburgh/Gogarbank, Grande-Bretagne (3166): Quantités de précipitations: 18.01.2021 06:00:00 - 24.01.2021 06:00:00 (GMT)
Date & Time tt [°C] td [°C] tt -20cm [°C] tt -100cm [°C] ff [km/h] ff [knt] fx [km/h] fx [knt] dd ppp [hPa] vv [km] sd [min] rr [mm]
24.01.2021 06:00:00 -5,2 -5,9 - - 2 1 - - W 995,7 35 0 0,0
24.01.2021 05:00:00 -4,7 -5,5 - - 2 1 - - SE 995,6 35 0 0,0
24.01.2021 04:00:00 -4,1 -4,8 - - 5 3 - - NNE 995,6 35 0 0,0
24.01.2021 03:00:00 -4,2 -4,9 - - 4 2 - - NNE 995,3 30 0 0,0
24.01.2021 02:00:00 -4,1 -5,2 - - 4 2 - - NNE 995,2 30 0 0,0
24.01.2021 01:00:00 -2,0 -3,8 - - 4 2 - - SW 995,1 40 0 0,0
24.01.2021 00:00:00 -1,3 -3,0 - - 9 5 - - SW 994,9 55 - 0,0
23.01.2021 23:00:00 -0,8 -3,1 - - 15 8 - - SW 994,8 65 0 0,0
23.01.2021 22:00:00 -0,4 -3,0 - - 13 7 - - WSW 994,7 65 0 0,0
23.01.2021 21:00:00 -0,8 -3,6 - - 13 7 - - SW 994,5 75 0 0,0
23.01.2021 20:00:00 -1,0 -3,8 - - 9 5 - - SW 994,2 75 0 0,0
23.01.2021 19:00:00 -0,7 -3,5 - - 15 8 - - WSW 994,0 75 0 0,0
23.01.2021 18:00:00 -0,3 -3,4 - - 13 7 - - SW 993,6 75 0 0,0
23.01.2021 17:00:00 -0,2 -3,1 - - 11 6 - - SW 993,5 65 0 0,0
23.01.2021 16:00:00 1,3 -2,2 - - 13 7 - - WSW 993,3 75 54 0,0
23.01.2021 15:00:00 2,1 -1,8 - - 13 7 - - WSW 993,2 60 54 0,0
23.01.2021 14:00:00 1,8 -1,4 - - 15 8 - - W 993,0 75 60 0,0
23.01.2021 13:00:00 1,4 -1,3 - - 15 8 - - WSW 993,2 50 54 0,0
23.01.2021 12:00:00 1,1 -1,9 - - 13 7 - - WSW 993,0 50 60 0,0
23.01.2021 11:00:00 0,4 -2,3 - - 13 7 - - WSW 992,7 60 60 0,0
23.01.2021 10:00:00 -0,6 -2,4 - - 11 6 - - WSW 992,1 50 30 0,0
23.01.2021 09:00:00 -2,1 -3,2 3,4 5,2 8 4 - - WSW 992,0 40 0 0,0
23.01.2021 08:00:00 -2,8 -3,7 - - 8 4 - - WSW 991,9 40 0 0,0
23.01.2021 07:00:00 -2,0 -3,5 - - 5 3 - - W 991,5 55 0 0,0
23.01.2021 06:00:00 -2,0 -4,0 - - 9 5 - - SSW 991,1 55 0 0,0
23.01.2021 05:00:00 -1,4 -3,2 - - 13 7 - - SW 990,9 60 0 0,0
23.01.2021 04:00:00 -1,4 -3,4 - - 11 6 - - SW 990,9 60 0 0,0
23.01.2021 03:00:00 -1,1 -3,0 - - 13 7 - - SW 990,7 60 0 0,0
23.01.2021 02:00:00 -0,5 -2,3 - - 16 9 - - WSW 990,7 60 0 0,0
23.01.2021 01:00:00 -0,7 -2,4 - - 15 8 - - WSW 990,6 55 0 0,0
23.01.2021 00:00:00 -0,6 -2,3 - - 11 6 - - SW 990,5 50 - 0,0
22.01.2021 23:00:00 -0,2 -2,0 - - 16 9 - - WSW 990,2 45 0 0,0
22.01.2021 22:00:00 0,1 -1,8 - - 15 8 - - WSW 989,9 45 0 0,0
22.01.2021 21:00:00 0,3 -1,7 - - 15 8 - - WSW 989,4 40 0 0,0
22.01.2021 20:00:00 0,7 -1,1 - - 16 9 - - WSW 989,3 40 0 0,0
22.01.2021 19:00:00 0,3 -1,5 - - 13 7 - - SW 988,9 35 0 0,0
22.01.2021 18:00:00 0,8 -1,7 - - 13 7 - - SW 988,7 40 0 0,0
22.01.2021 17:00:00 1,6 -1,5 - - 13 7 - - SW 988,3 40 0 0,0
22.01.2021 16:00:00 2,9 -0,8 - - 13 7 - - WSW 987,9 50 42 0,0
22.01.2021 15:00:00 4,0 -0,4 - - 13 7 - - WSW 987,6 50 42 0,0
22.01.2021 14:00:00 4,3 -0,2 - - 15 8 - - WSW 987,1 55 60 0,0
22.01.2021 13:00:00 4,0 -0,1 - - 15 8 - - WSW 986,9 50 54 0,0
22.01.2021 12:00:00 3,6 -0,2 - - 16 9 - - SW 986,7 40 60 0,0
22.01.2021 11:00:00 2,8 -0,2 - - 21 11 - - W 986,1 40 42 0,0
22.01.2021 10:00:00 1,9 -0,5 - - 18 10 - - WSW 985,5 50 0 0,0
22.01.2021 09:00:00 1,9 -0,4 3,7 5,2 22 12 - - WSW 984,6 50 0 0,0
22.01.2021 08:00:00 1,6 -0,6 - - 22 12 - - WSW 983,6 50 0 0,0
22.01.2021 07:00:00 1,8 -0,6 - - 21 11 - - WSW 982,8 50 0 0,0
22.01.2021 06:00:00 2,1 -0,3 - - 24 13 - - WSW 981,6 60 0 0,0
22.01.2021 05:00:00 2,2 -0,5 - - 21 11 - - WSW 981,0 60 0 0,0
22.01.2021 04:00:00 2,1 -0,5 - - 24 13 - - WSW 980,3 70 0 0,0
22.01.2021 03:00:00 2,3 -0,5 - - 28 15 - - W 979,8 65 0 0,0
22.01.2021 02:00:00 1,9 -0,8 - - 26 14 48 26 WSW 979,2 60 0 0,0
22.01.2021 01:00:00 2,3 -0,5 - - 26 14 - - WSW 979,0 45 0 0,0
22.01.2021 00:00:00 2,4 -0,5 - - 26 14 48 26 WSW 978,4 35 - 0,0
21.01.2021 23:00:00 2,6 -0,8 - - 28 15 - - WSW 977,9 45 0 0,0
21.01.2021 22:00:00 2,7 -0,8 - - 26 14 - - WSW 977,6 55 0 0,0
21.01.2021 21:00:00 2,6 -0,4 - - 22 12 - - WSW 977,3 70 0 0,0
21.01.2021 20:00:00 2,5 -0,3 - - 21 11 - - WSW 977,0 60 0 0,0
21.01.2021 19:00:00 2,8 -0,1 - - 22 12 - - WSW 976,4 50 0 0,0
21.01.2021 18:00:00 3,4 -0,1 - - 24 13 - - W 975,6 55 0 0,0
21.01.2021 17:00:00 3,6 -0,4 - - 26 14 - - W 974,9 45 0 0,0
21.01.2021 16:00:00 3,5 -0,1 - - 22 12 46 25 WSW 974,4 30 18 0,0
21.01.2021 15:00:00 4,0 0,2 - - 22 12 - - W 973,6 35 6 0,0
21.01.2021 14:00:00 3,4 0,4 - - 28 15 - - WSW 972,7 50 0 0,0
21.01.2021 13:00:00 3,2 0,4 - - 26 14 - - W 972,1 40 0 0,0
21.01.2021 12:00:00 2,7 0,2 - - 29 16 - - W 971,3 45 0 1,8
21.01.2021 11:00:00 2,3 0,1 - - 29 16 46 25 WSW 970,5 55 0 2,0
21.01.2021 10:00:00 1,7 0,1 - - 24 13 - - WSW 969,5 65 0 1,8
21.01.2021 09:00:00 1,2 0,1 3,7 5,2 26 14 - - WSW 969,2 45 0 1,2
21.01.2021 08:00:00 1,0 0,3 - - 26 14 - - WSW 969,0 65 0 0,6
21.01.2021 07:00:00 0,6 0,2 - - 21 11 - - WSW 969,2 3,5 0 0,2
21.01.2021 06:00:00 0,6 -0,3 - - 18 10 - - WSW 969,5 2,7 0 0,0
21.01.2021 05:00:00 0,7 -0,6 - - 16 9 - - W 969,4 65 0 0,2
21.01.2021 04:00:00 0,8 0,1 - - 18 10 - - WSW 969,4 45 0 0,2
21.01.2021 03:00:00 0,5 0,3 - - 13 7 - - W 970,1 2,0 0 0,2
21.01.2021 02:00:00 0,3 0,1 - - 13 7 - - W 970,6 0,7 0 0,0
21.01.2021 01:00:00 0,2 0,1 - - 9 5 - - W 971,1 1,2 0 0,0
21.01.2021 00:00:00 0,2 0,1 - - 8 4 - - W 971,9 0,8 - 0,0
20.01.2021 23:00:00 0,2 0,0 - - 4 2 - - W 972,9 1,0 0 0,0
20.01.2021 22:00:00 0,2 0,0 - - 4 2 - - WSW 973,8 0,8 0 0,2
20.01.2021 21:00:00 0,8 0,6 - - 4 2 - - WNW 974,4 2,6 0 0,4
20.01.2021 20:00:00 1,2 1,1 - - 4 2 - - NW 975,1 3,5 0 0,2
20.01.2021 19:00:00 1,1 1,0 - - 5 3 - - WSW 975,9 2,8 0 0,2
20.01.2021 18:00:00 1,1 0,9 - - 5 3 - - SSW 976,2 2,8 0 0,4
20.01.2021 17:00:00 1,2 1,0 - - 5 3 - - SSW 976,5 1,6 0 0,2
20.01.2021 16:00:00 1,2 1,0 - - 4 2 - - SW 977,0 1,2 0 0,2
20.01.2021 15:00:00 1,2 1,1 - - 5 3 - - SW 977,7 1,5 0 1,0
20.01.2021 14:00:00 1,3 1,2 - - 4 2 - - SSW 978,5 3,0 0 1,2
20.01.2021 13:00:00 1,1 1,0 - - 8 4 - - SW 979,4 1,3 0 1,4
20.01.2021 12:00:00 1,0 0,9 - - 4 2 - - SW 979,8 1,4 0 1,2
20.01.2021 11:00:00 0,8 0,6 - - 5 3 - - WSW 980,7 1,6 0 0,8
20.01.2021 10:00:00 0,6 0,5 - - 5 3 - - SSW 981,0 2,2 0 0,8
20.01.2021 09:00:00 0,4 0,3 3,9 5,2 5 3 - - SW 981,3 2,1 0 0,6
20.01.2021 08:00:00 0,5 0,3 - - 4 2 - - WSW 981,5 1,1 0 0,2
20.01.2021 07:00:00 0,4 0,3 - - 4 2 - - W 981,8 1,4 0 0,0
20.01.2021 06:00:00 0,4 0,2 - - 5 3 - - SW 981,9 1,0 0 0,2
20.01.2021 05:00:00 0,3 0,1 - - 4 2 - - W 982,3 1,3 0 0,0
20.01.2021 04:00:00 0,3 0,1 - - 4 2 - - S 982,6 2,2 0 0,0
20.01.2021 03:00:00 0,2 -0,1 - - 4 2 - - W 983,0 2,5 0 0,0
20.01.2021 02:00:00 0,1 -0,2 - - 2 1 - - NNW 983,5 0,4 0 0,2
20.01.2021 01:00:00 0,2 -0,1 - - 0 0 - - N 984,1 0,6 0 0,0
20.01.2021 00:00:00 0,2 -0,1 - - 0 0 - - N 984,9 0,9 - 0,2
19.01.2021 23:00:00 0,3 -0,1 - - 4 2 - - ENE 985,6 0,7 0 0,2
19.01.2021 22:00:00 0,6 0,2 - - 5 3 - - ENE 986,3 2,8 0 1,0
19.01.2021 21:00:00 0,8 0,1 - - 2 1 - - ESE 987,1 3,2 0 1,2
19.01.2021 20:00:00 1,5 0,8 - - 9 5 - - E 988,0 7 0 1,2
19.01.2021 19:00:00 2,3 1,7 - - 11 6 - - E 988,7 11 0 0,6
19.01.2021 18:00:00 2,5 2,0 - - 5 3 - - E 989,5 7 0 0,6
19.01.2021 17:00:00 2,8 2,4 - - 4 2 - - ESE 990,6 11 0 0,6
19.01.2021 16:00:00 3,1 2,7 - - 2 1 - - NE 991,9 3,8 0 0,4
19.01.2021 15:00:00 3,1 2,8 - - 0 0 - - N 992,6 10 0 0,0
19.01.2021 14:00:00 2,7 2,4 - - 0 0 - - N 993,7 12 0 0,0
19.01.2021 13:00:00 2,2 1,8 - - 2 1 - - NNE 994,8 11 0 0,0
19.01.2021 12:00:00 2,2 1,9 - - 0 0 - - N 995,8 10 0 0,0
19.01.2021 11:00:00 1,7 1,3 - - 2 1 - - N 996,6 15 0 0,0
19.01.2021 10:00:00 1,5 1,0 - - 4 2 - - SW 997,0 30 0 0,0
19.01.2021 09:00:00 1,3 0,2 4,0 5,2 5 3 - - N 997,6 16 0 0,0
19.01.2021 08:00:00 2,8 2,0 - - 8 4 - - SSW 997,9 40 0 0,0
19.01.2021 07:00:00 3,4 2,8 - - 8 4 - - SSW 998,0 30 0 0,0
19.01.2021 06:00:00 2,3 1,6 - - 4 2 - - N 998,7 21 0 0,0
19.01.2021 05:00:00 3,3 2,4 - - 4 2 - - WSW 998,9 30 0 0,0
19.01.2021 04:00:00 4,1 3,2 - - 8 4 - - SW 999,1 40 0 0,0
19.01.2021 03:00:00 4,6 3,8 - - 11 6 - - SW 999,5 40 0 0,0
19.01.2021 02:00:00 4,8 4,3 - - 11 6 - - SW 1000,2 22 0 0,2
19.01.2021 01:00:00 4,6 4,1 - - 8 4 - - SSW 1001,1 12 0 0,2
19.01.2021 00:00:00 4,4 3,6 - - 5 3 - - NW 1002,2 14 - 0,0
18.01.2021 23:00:00 4,5 3,5 - - 8 4 - - WNW 1002,9 27 0 0,0
18.01.2021 22:00:00 4,5 3,1 - - 8 4 - - W 1003,7 45 0 0,0
18.01.2021 21:00:00 5,0 3,6 - - 18 10 - - SW 1004,4 27 0 0,0
18.01.2021 20:00:00 5,1 3,3 - - 15 8 - - SW 1005,1 30 0 0,0
18.01.2021 19:00:00 5,3 3,0 - - 15 8 - - SW 1005,8 21 0 0,0
18.01.2021 18:00:00 5,4 2,8 - - 24 13 - - SW 1006,2 60 0 0,2
18.01.2021 17:00:00 5,6 2,8 - - 26 14 46 25 SW 1007,0 55 0 0,0
18.01.2021 16:00:00 6,2 3,4 - - 24 13 - - WSW 1007,7 55 0 0,0
18.01.2021 15:00:00 6,2 4,5 - - 24 13 - - WSW 1008,3 13 0 0,0
18.01.2021 14:00:00 6,2 4,4 - - 18 10 - - WSW 1009,2 9 0 0,2
18.01.2021 13:00:00 6,1 4,4 - - 16 9 - - SW 1010,5 5 0 0,0
18.01.2021 12:00:00 6,7 3,4 - - 26 14 - - WSW 1011,0 30 6 0,0
18.01.2021 11:00:00 6,5 3,1 - - 24 13 - - SW 1011,5 28 36 0,0
18.01.2021 10:00:00 5,2 2,6 - - 16 9 - - SW 1012,3 24 0 0,0
18.01.2021 09:00:00 4,6 2,4 3,7 5,2 18 10 - - SW 1012,5 24 0 0,0
18.01.2021 08:00:00 4,7 2,7 - - 16 9 - - SW 1012,7 27 0 0,0
18.01.2021 07:00:00 4,9 3,2 - - 18 10 - - SW 1012,8 28 0 0,0
18.01.2021 06:00:00 4,5 3,0 - - 21 11 - - WSW 1012,8 45 0 0,0

tt = Température de l'air
td = dewpoint
tt -20cm = Température de l'air -20cm
tt -100cm = Température de l'air -100cm
ff = Vitesse du vent
fx = gusts
dd = Direction du vent
ppp = reduced air pressure
vv = visibility
sd = Ensoleillement
rr = Quantités de précipitations

stations d'obs. à proximité